FW8124 Weather Reports


time (UTC)temp
F
wind
direction
speed
knots
gust
knots
rain 1hr
in
rain 24hr
in
rain mn
in
humidity
%
barometer
mb
20260510210057 67 337 2.6 7.0 0.00 0.00 0.00 66 1012.2
20260510204559 67 335 2.6 4.3 0.00 0.00 0.00 66 1012.2
20260510203055 68 0 0.0 2.6 0.00 0.00 0.00 65 1012.1
20260510201558 68 0 2.6 7.8 0.00 0.00 0.00 64 1011.6
20260510200052 68 300 2.6 9.6 0.00 0.00 0.00 63 1011.3
20260510194550 69 336 3.5 10.4 0.00 0.00 0.00 62 1011.1
20260510193055 69 314 6.1 10.4 0.00 0.00 0.00 61 1011.0
20260510191550 69 336 7.0 12.2 0.00 0.00 0.00 62 1010.8
20260510190048 70 329 9.6 13.9 0.00 0.00 0.00 61 1010.8
20260510184554 71 324 7.8 13.9 0.00 0.00 0.00 58 1011.0
20260510183052 71 312 7.0 14.8 0.00 0.00 0.00 56 1010.8
20260510181552 72 346 7.8 14.8 0.00 0.00 0.00 55 1010.8
20260510180056 72 345 7.8 17.4 0.00 0.00 0.00 54 1010.8
20260510174553 72 336 8.7 18.2 0.00 0.00 0.00 53 1010.8
20260510173054 73 333 7.8 15.6 0.00 0.00 0.00 53 1010.8
20260510171559 73 338 5.2 13.0 0.00 0.00 0.00 53 1010.7
20260510170121 74 234 5.2 13.9 0.00 0.00 0.00 51 1010.7
20260510164604 75 327 7.8 15.6 0.00 0.00 0.00 50 1010.8
20260510163053 75 327 7.0 16.5 0.00 0.00 0.00 49 1010.8
20260510161555 75 323 8.7 17.4 0.00 0.00 0.00 49 1010.9
20260510160051 75 325 9.6 20.0 0.00 0.00 0.00 49 1010.8
20260510154553 75 317 8.7 13.9 0.00 0.00 0.00 50 1011.0
20260510153058 73 342 7.0 13.0 0.00 0.00 0.00 59 1011.1
20260510151559 70 292 10.4 16.5 0.00 0.00 0.00 71 1011.4
20260510150058 70 313 9.6 17.4 0.00 0.00 0.00 71 1011.6
20260510144558 74 342 10.4 17.4 0.00 0.00 0.00 58 1011.5
20260510143055 73 327 8.7 15.6 0.00 0.00 0.00 63 1011.8
20260510141557 72 318 11.3 18.2 0.00 0.00 0.00 63 1011.8
20260510140050 74 319 12.2 18.2 0.00 0.00 0.00 55 1012.0
20260510134556 74 336 8.7 16.5 0.00 0.00 0.00 60 1012.1
20260510133055 75 347 8.7 18.2 0.00 0.00 0.00 54 1012.2
20260510131556 76 311 8.7 16.5 0.00 0.00 0.00 52 1012.4
20260510130054 76 331 8.7 16.5 0.00 0.00 0.00 52 1012.5
20260510124605 76 311 10.4 18.2 0.00 0.00 0.00 53 1012.5
20260510123053 71 304 2.6 11.3 0.00 0.00 0.00 74 1012.8
20260510121551 69 309 7.8 14.8 0.00 0.00 0.00 77 1013.2
20260510120054 69 327 6.1 10.4 0.00 0.00 0.00 77 1013.5
20260510114552 69 313 7.0 11.3 0.00 0.00 0.00 78 1013.5
20260510113053 69 315 6.1 9.6 0.00 0.00 0.00 79 1013.9
20260510111549 68 306 4.3 7.8 0.00 0.00 0.00 80 1014.2
20260510110052 67 241 4.3 9.6 0.00 0.00 0.00 79 1014.3
20260510104555 67 306 5.2 8.7 0.00 0.02 0.00 77 1014.4
20260510103054 68 275 2.6 9.6 0.00 0.02 0.00 76 1014.3
20260510101551 68 279 3.5 8.7 0.00 0.02 0.00 75 1014.4
20260510100101 67 252 3.5 8.7 0.00 0.02 0.00 75 1014.2
20260510094553 67 248 3.5 7.8 0.00 0.16 0.00 75 1014.2
20260510093054 67 228 2.6 7.0 0.00 0.16 0.00 75 1014.2
20260510091549 65 264 4.3 7.8 0.00 0.16 0.00 77 1014.3
20260510090054 65 242 4.3 7.8 0.00 0.16 0.00 77 1014.1
20260510084553 67 233 2.6 7.8 0.00 0.23 0.00 76 1014.3
20260510083103 67 0 0.9 7.0 0.00 0.23 0.00 74 1014.4
20260510081553 66 260 1.7 6.1 0.00 0.23 0.00 77 1014.2
20260510080053 66 0 0.9 2.6 0.00 0.23 0.00 76 1014.6
20260510074556 65 0 0.0 2.6 0.00 0.25 0.00 77 1014.6
20260510073105 65 0 0.0 4.3 0.00 0.25 0.00 78 1014.6
20260510071552 64 0 0.0 2.6 0.00 0.25 0.00 80 1014.5
20260510070054 63 132 0.0 1.7 0.00 0.25 0.00 81 1014.3
20260510064554 62 132 0.9 6.1 0.00 0.47 0.00 83 1014.3
20260510063054 61 109 1.7 5.2 0.00 0.47 0.00 84 1014.2
20260510061552 60 134 1.7 3.5 0.00 0.47 0.00 85 1014.1
20260510060055 60 96 0.0 2.6 0.00 0.47 0.00 85 1014.1
20260510054554 59 0 0.0 3.5 0.00 0.54 0.00 85 1014.0
20260510053053 59 96 1.7 2.6 0.00 0.54 0.00 85 1013.9
20260510051556 59 0 0.0 3.5 0.00 0.54 0.00 85 1013.8
20260510050057 59 0 0.0 0.0 0.00 0.54 0.00 84 1013.7
20260510044557 59 0 0.0 0.0 0.00 0.54 0.00 84 1013.7
20260510043054 59 0 0.0 0.0 0.00 0.54 0.00 84 1013.7
20260510041553 59 0 0.0 0.0 0.00 0.54 0.00 84 1013.6
20260510040058 59 0 0.0 0.9 0.00 0.54 0.00 84 1013.6
20260510034551 59 0 0.0 1.7 0.00 0.54 0.00 84 1013.6
20260510033112 59 95 0.9 2.6 0.00 0.54 0.00 84 1013.6
20260510031550 59 95 0.9 2.6 0.00 0.54 0.00 84 1013.6
20260510030050 59 95 0.9 2.6 0.00 0.54 0.00 84 1013.6
20260510024549 60 96 0.0 2.6 0.00 0.54 0.00 84 1013.6
20260510023056 60 96 0.9 2.6 0.00 0.54 0.00 84 1013.6
20260510021552 60 0 0.0 0.9 0.00 0.54 0.00 84 1013.5
20260510020057 60 0 0.0 0.9 0.00 0.54 0.00 84 1013.3
20260510014553 60 0 0.0 1.7 0.00 0.54 0.00 83 1013.2
20260510013049 60 96 0.0 0.9 0.00 0.54 0.00 83 1013.2
20260510011553 60 0 0.0 1.7 0.00 0.54 0.00 83 1013.2
20260510010049 60 96 0.0 2.6 0.00 0.54 0.00 83 1013.5
20260510004551 61 0 0.0 3.5 0.00 0.54 0.00 83 1013.6
20260510003103 61 98 0.9 5.2 0.00 0.54 0.00 82 1013.6
20260510001552 62 88 1.7 3.5 0.00 0.54 0.00 82 1013.7
20260510000053 62 0 0.0 1.7 0.00 0.54 0.00 82 1013.9
20260509234559 62 351 0.9 1.7 0.00 0.54 0.00 81 1013.8
20260509233053 63 0 0.0 3.5 0.00 0.54 0.00 81 1013.9
20260509231559 63 0 0.0 0.0 0.00 0.54 0.00 80 1014.0
20260509230053 63 0 0.0 0.0 0.00 0.54 0.00 80 1014.0
20260509224558 63 0 0.0 2.6 0.00 0.54 0.00 80 1014.1
20260509223053 64 355 0.9 4.3 0.00 0.54 0.00 79 1014.1
20260509221550 64 331 1.7 4.3 0.00 0.54 0.00 78 1014.1
20260509220053 64 13 0.9 2.6 0.00 0.54 0.00 78 1014.3
20260509214552 64 0 0.0 1.7 0.00 0.54 0.54 77 1014.2
20260509213056 64 323 0.9 3.5 0.00 0.54 0.54 77 1014.1
20260509211550 64 331 1.7 5.2 0.00 0.54 0.54 76 1014.1